Location: Arnolds Mill
(42.3415°N, 73.5951°W)
Time: 10:52:54
(UTC+00:00)

BlueWalker 3 - Pass Details

Date: 27 June 2024
Orbit: 480 x 492 km, 53.2° (Epoch: 13 July)

Event Time Altitude Azimuth Distance (km) Brightness Sun altitude
Rises 03:58:59 0° 310° (NW) 2,541 6.4 -23.0°
Reaches altitude 10° 04:01:26 10° 324° (NW) 1,659 5.5 -23.1°
Maximum altitude 04:04:35 25° 21° (NNE) 1,006 4.0 -23.2°
Enters shadow 04:06:49 15° 69° (ENE) 1,371 4.2 -23.3°
